Home   Weather   Louisville   Past weeks

Flag for USA Past Weather in Louisville, Kentucky, USA — Yesterday and Last 2 Weeks

Now
72 °F

Partly sunny.


Feels Like: 77 °F
Forecast: 55 / 76 °F
Wind: 8 mph from South

Location: Standiford Field

Current Time: Oct 21, 2017 at 1:41:15 pm

Latest Report: Oct 21, 2017 at 12:56 pm


Visibility: 10 mi

Pressure: 30.22 "Hg

Humidity: 49%

Dew Point: 52 °F

Location of LouisvilleLocation

Past Weather in Louisville — Graph

°F

Louisville Temperature Yesterday

Maximum temperature yesterday: 78 °F (at 4:56 pm)
Minimum temperature yesterday: 50 °F (at 7:56 am)
Average temperature yesterday: 64 °F

High & Low Weather Summary for the Past Weeks

 TemperatureHumidityPressure
High84 °F (Oct 14, 3:56 pm)100% (Oct 8, 10:41 pm)30.40 "Hg (Oct 8, 10:41 pm)
Low43 °F (Oct 17, 5:56 am)36% (Oct 17, 4:56 pm)29.67 "Hg (Oct 8, 8:56 pm)
Average65 °F77%30.08 "Hg
* Reported Oct 6 11:56 am — Oct 21 11:56 am, Louisville. Weather by CustomWeather, © 2017

Note: Actual official high and low records may vary slightly from our data, if they occured in-between our weather recording intervals... More about our weather records

Advertising

Louisville Weather History for the Previous 24 Hours

Scroll right to see more
 ConditionsComfort  
Time TempWeatherWind HumidityBarometerVisibility
11:56 am
Sat, Oct 21
69 °FBroken clouds.9 mph53%30.24 "Hg10 mi
10:56 am65 °FPartly sunny.6 mph66%30.24 "Hg10 mi
9:56 am60 °FBroken clouds.6 mph75%30.24 "Hg10 mi
8:56 am55 °FBroken clouds.7 mph87%30.22 "Hg10 mi
7:56 am54 °FPassing clouds.7 mph86%30.20 "Hg10 mi
6:56 am54 °FClear.7 mph86%30.20 "Hg10 mi
5:56 am56 °FPassing clouds.7 mph84%30.17 "Hg10 mi
4:56 am56 °FPassing clouds.6 mph84%30.16 "Hg10 mi
3:56 am55 °FPassing clouds.5 mph87%30.16 "Hg10 mi
2:56 am56 °FPassing clouds.5 mph84%30.16 "Hg10 mi
1:56 am58 °FPassing clouds.3 mph81%30.16 "Hg10 mi
12:56 am62 °FPassing clouds.5 mph70%30.16 "Hg10 mi
11:56 pm
Fri, Oct 20
62 °FPassing clouds.No wind70%30.17 "Hg10 mi
10:56 pm64 °FPassing clouds.3 mph65%30.17 "Hg10 mi
9:56 pm64 °FPassing clouds.3 mph65%30.17 "Hg10 mi
8:56 pm67 °FPassing clouds.3 mph63%30.17 "Hg10 mi
7:56 pm70 °FPassing clouds.No wind51%30.17 "Hg10 mi
6:56 pm74 °FPartly sunny.5 mph43%30.16 "Hg10 mi
5:56 pm76 °FScattered clouds.6 mph40%30.16 "Hg10 mi
4:56 pm78 °FScattered clouds.8 mph39%30.17 "Hg10 mi
3:56 pm77 °FPartly sunny.3 mph39%30.18 "Hg10 mi
2:56 pm76 °FScattered clouds.7 mph42%30.21 "Hg10 mi
1:56 pm75 °FScattered clouds.5 mph43%30.24 "Hg10 mi
Weather by CustomWeather, © 2017

See weather overview